Meteo pe oră la Abaigar

Astăzi, 3 August, Marţi

Timp Temperatura Precipitaţii Vânt Presiune Umiditate
00:00 +13°C° 0 mm 2 m/s 708 mmHg 91%
01:00 +13°C° 0 mm 1 m/s 708 mmHg 90%
02:00 +12°C° 0 mm 1 m/s 708 mmHg 90%
03:00 +12°C° 0 mm 1 m/s 708 mmHg 90%
04:00 +13°C° 0 mm 1 m/s 708 mmHg 88%
05:00 +13°C° 0 mm 1 m/s 708 mmHg 85%
06:00 +14°C° 0 mm 1 m/s 708 mmHg 83%
07:00 +16°C° 0 mm 1 m/s 709 mmHg 74%
08:00 +17°C° 0 mm 0 m/s 709 mmHg 65%
09:00 +19°C° 0 mm 0 m/s 709 mmHg 56%
10:00 +23°C° 0 mm 1 m/s 709 mmHg 49%
11:00 +25°C° 0 mm 1 m/s 708 mmHg 43%
12:00 +27°C° 0 mm 2 m/s 708 mmHg 36%
13:00 +28°C° 0 mm 2 m/s 708 mmHg 34%
14:00 +29°C° 0 mm 2 m/s 707 mmHg 32%
15:00 +30°C° 0 mm 2 m/s 706 mmHg 30%
16:00 +27°C° 0 mm 2 m/s 706 mmHg 42%
17:00 +24°C° 0 mm 3 m/s 706 mmHg 54%
18:00 +21°C° 0 mm 4 m/s 706 mmHg 65%
19:00 +19°C° 0 mm 4 m/s 706 mmHg 72%
20:00 +18°C° 0 mm 3 m/s 707 mmHg 78%
21:00 +16°C° 0 mm 3 m/s 707 mmHg 84%
22:00 +16°C° 0 mm 2 m/s 707 mmHg 82%
23:00 +16°C° 0 mm 2 m/s 707 mmHg 81%

Mâine, 4 August, Miercuri

Timp Temperatura Precipitaţii Vânt Presiune Umiditate
00:00 +16°C° 0 mm 2 m/s 707 mmHg 79%
01:00 +16°C° 0.1 mm 2 m/s 707 mmHg 81%
02:00 +16°C° 0.1 mm 2 m/s 707 mmHg 82%
03:00 +16°C° 0.1 mm 2 m/s 707 mmHg 84%
04:00 +16°C° 0 mm 2 m/s 707 mmHg 84%
05:00 +16°C° 0 mm 1 m/s 707 mmHg 84%
06:00 +16°C° 0 mm 1 m/s 708 mmHg 84%
07:00 +17°C° 0 mm 2 m/s 708 mmHg 78%
08:00 +18°C° 0 mm 2 m/s 708 mmHg 72%
09:00 +20°C° 0 mm 2 m/s 709 mmHg 67%
10:00 +21°C° 0 mm 3 m/s 709 mmHg 61%
11:00 +22°C° 0 mm 3 m/s 709 mmHg 55%
12:00 +25°C° 0 mm 4 m/s 709 mmHg 49%
13:00 +25°C° 0 mm 4 m/s 709 mmHg 49%
14:00 +25°C° 0 mm 5 m/s 709 mmHg 48%
15:00 +25°C° 0 mm 5 m/s 708 mmHg 48%
16:00 +23°C° 0 mm 5 m/s 709 mmHg 51%
17:00 +22°C° 0 mm 5 m/s 709 mmHg 55%
18:00 +21°C° 0 mm 5 m/s 709 mmHg 59%
19:00 +19°C° 0 mm 4 m/s 709 mmHg 68%
20:00 +17°C° 0 mm 3 m/s 709 mmHg 76%
21:00 +15°C° 0 mm 1 m/s 709 mmHg 85%
22:00 +15°C° 0 mm 1 m/s 709 mmHg 87%
23:00 +14°C° 0 mm 1 m/s 709 mmHg 88%

Poimâine, 5 August, Joi

Timp Temperatura Precipitaţii Vânt Presiune Umiditate
00:00 +14°C° 0 mm 1 m/s 709 mmHg 90%
01:00 +13°C° 0 mm 1 m/s 709 mmHg 90%
02:00 +13°C° 0 mm 1 m/s 708 mmHg 90%
03:00 +13°C° 0 mm 1 m/s 708 mmHg 90%
04:00 +13°C° 0 mm 1 m/s 708 mmHg 88%
05:00 +14°C° 0 mm 1 m/s 708 mmHg 86%
06:00 +14°C° 0 mm 1 m/s 708 mmHg 84%
07:00 +18°C° 0 mm 1 m/s 708 mmHg 73%
08:00 +20°C° 0 mm 1 m/s 708 mmHg 62%
09:00 +23°C° 0 mm 1 m/s 709 mmHg 52%
10:00 +25°C° 0 mm 1 m/s 708 mmHg 45%
11:00 +27°C° 0 mm 1 m/s 708 mmHg 37%
12:00 +29°C° 0 mm 1 m/s 708 mmHg 30%
13:00 +30°C° 0 mm 2 m/s 707 mmHg 28%
14:00 +32°C° 0 mm 2 m/s 707 mmHg 25%
15:00 +34°C° 0 mm 2 m/s 706 mmHg 23%
16:00 +31°C° 0 mm 3 m/s 706 mmHg 30%
17:00 +29°C° 0 mm 4 m/s 706 mmHg 36%
18:00 +27°C° 0 mm 5 m/s 706 mmHg 43%
19:00 +23°C° 0 mm 5 m/s 706 mmHg 54%
20:00 +20°C° 0 mm 4 m/s 706 mmHg 65%
21:00 +17°C° 0 mm 3 m/s 707 mmHg 77%
22:00 +17°C° 0 mm 3 m/s 707 mmHg 79%
23:00 +17°C° 0 mm 2 m/s 707 mmHg 81%

6 August, Vineri

Timp Temperatura Precipitaţii Vânt Presiune Umiditate
00:00 +16°C° 0 mm 2 m/s 707 mmHg 84%
01:00 +16°C° 0 mm 2 m/s 706 mmHg 86%
02:00 +16°C° 0 mm 2 m/s 706 mmHg 87%
03:00 +16°C° 0 mm 2 m/s 706 mmHg 89%
04:00 +16°C° 0 mm 2 m/s 706 mmHg 89%
05:00 +16°C° 0 mm 1 m/s 706 mmHg 89%
06:00 +16°C° 0 mm 1 m/s 706 mmHg 88%
07:00 +18°C° 0 mm 1 m/s 706 mmHg 78%
08:00 +20°C° 0 mm 1 m/s 706 mmHg 68%
09:00 +22°C° 0 mm 1 m/s 706 mmHg 57%
10:00 +24°C° 0 mm 1 m/s 706 mmHg 50%
11:00 +26°C° 0 mm 1 m/s 705 mmHg 43%
12:00 +28°C° 0 mm 1 m/s 705 mmHg 36%
13:00 +29°C° 0 mm 2 m/s 704 mmHg 35%
14:00 +30°C° 0 mm 2 m/s 704 mmHg 33%
15:00 +31°C° 0 mm 2 m/s 703 mmHg 31%
16:00 +29°C° 0 mm 3 m/s 703 mmHg 38%
17:00 +27°C° 0 mm 3 m/s 702 mmHg 44%
18:00 +26°C° 0 mm 4 m/s 702 mmHg 51%
19:00 +22°C° 0 mm 3 m/s 702 mmHg 63%
20:00 +19°C° 0 mm 3 m/s 703 mmHg 75%
21:00 +16°C° 0 mm 2 m/s 703 mmHg 87%
22:00 +16°C° 0 mm 2 m/s 703 mmHg 87%
23:00 +16°C° 0 mm 2 m/s 703 mmHg 87%

7 August, Sâmbătă

Timp Temperatura Precipitaţii Vânt Presiune Umiditate
00:00 +15°C° 0 mm 2 m/s 703 mmHg 86%
01:00 +15°C° 0 mm 2 m/s 703 mmHg 86%
02:00 +15°C° 0 mm 2 m/s 703 mmHg 86%
03:00 +15°C° 0 mm 2 m/s 703 mmHg 85%
04:00 +16°C° 0 mm 2 m/s 703 mmHg 84%
05:00 +16°C° 0 mm 2 m/s 703 mmHg 83%
06:00 +16°C° 0 mm 2 m/s 703 mmHg 82%
07:00 +17°C° 0 mm 2 m/s 704 mmHg 73%
08:00 +19°C° 0 mm 3 m/s 704 mmHg 64%
09:00 +20°C° 0 mm 3 m/s 705 mmHg 55%
10:00 +21°C° 0 mm 3 m/s 705 mmHg 49%
11:00 +24°C° 0 mm 3 m/s 705 mmHg 43%
12:00 +25°C° 0 mm 4 m/s 705 mmHg 38%
13:00 +25°C° 0 mm 5 m/s 705 mmHg 39%
14:00 +25°C° 0 mm 5 m/s 704 mmHg 40%
15:00 +24°C° 0 mm 6 m/s 704 mmHg 41%
16:00 +22°C° 0 mm 6 m/s 705 mmHg 47%
17:00 +21°C° 0 mm 5 m/s 705 mmHg 52%
18:00 +19°C° 0 mm 5 m/s 705 mmHg 58%
19:00 +18°C° 0 mm 4 m/s 706 mmHg 66%
20:00 +16°C° 0 mm 3 m/s 706 mmHg 73%
21:00 +14°C° 0 mm 2 m/s 706 mmHg 81%
22:00 +14°C° 0 mm 2 m/s 706 mmHg 83%
23:00 +14°C° 0 mm 2 m/s 706 mmHg 85%

8 August, Duminică

Timp Temperatura Precipitaţii Vânt Presiune Umiditate
00:00 +13°C° 0 mm 2 m/s 707 mmHg 87%
01:00 +13°C° 0 mm 2 m/s 707 mmHg 87%
02:00 +13°C° 0 mm 2 m/s 706 mmHg 87%
03:00 +13°C° 0 mm 2 m/s 706 mmHg 88%
04:00 +13°C° 0 mm 2 m/s 707 mmHg 87%
05:00 +13°C° 0 mm 2 m/s 707 mmHg 87%
06:00 +14°C° 0 mm 2 m/s 707 mmHg 87%
07:00 +15°C° 0 mm 2 m/s 708 mmHg 79%
08:00 +17°C° 0 mm 2 m/s 708 mmHg 72%
09:00 +18°C° 0 mm 3 m/s 708 mmHg 65%
10:00 +19°C° 0 mm 3 m/s 709 mmHg 61%
11:00 +21°C° 0 mm 3 m/s 709 mmHg 56%
12:00 +22°C° 0 mm 4 m/s 709 mmHg 51%
13:00 +22°C° 0 mm 4 m/s 709 mmHg 52%
14:00 +22°C° 0 mm 5 m/s 709 mmHg 53%
15:00 +22°C° 0 mm 6 m/s 709 mmHg 53%
16:00 +21°C° 0 mm 6 m/s 710 mmHg 57%
17:00 +20°C° 0 mm 5 m/s 710 mmHg 60%
18:00 +19°C° 0 mm 5 m/s 710 mmHg 63%
19:00 +17°C° 0 mm 4 m/s 711 mmHg 71%
20:00 +14°C° 0 mm 3 m/s 711 mmHg 80%
21:00 +12°C° 0 mm 3 m/s 712 mmHg 88%
22:00 +13°C° 0 mm 2 m/s 712 mmHg 89%
23:00 +13°C° 0 mm 2 m/s 712 mmHg 90%
Arată mai mult

Formular de consimțământ

Meteoprog și furnizorii noștri de servicii pot stoca și accesa date personale, precum cookies, identificatori de dispozitiv sau alte tehnologii similare pe dispozitivul dumneavoastră și procesa astfel de date pentru a personaliza conținutul și reclamele, dar și pentru a oferi caracteristici de social media și pentru a analiza traficul.

  • Stocarea și/sau accesarea informațiilor pe dispozitivul dumneavoastră

    Cookies, identificatori de dispozitiv sau alte informații pot fi stocate sau accesate pe dispozitiv în scopurile indicate mai sus.

  • Reclame și conținut personalizat, evaluarea reclamelor și a conținutului, informații despre audiențe și dezvoltarea produselor

    Reclamele și conținutul pot fi personalizate pe baza unui profil. Pot fi adăugate date suplimentare pentru a personaliza mai bine reclamele și conținutul. Performanța reclamelor și conținutului poate fi măsurată. Pot fi obținute informații despre utilizatorii care au văzut reclamele și conținutul. Aceste date pot fi utilizate pentru a dezvolta sau îmbunătăți experiența utilizatorilor, sistemele și software-ul.

Dând clic pe ‘Sunt de acord’, permiteți utilizarea cookie-urilor menționate, a identificatorilor de dispozitiv, balizelor web sau altor tehnologii similare. Setările pot fi modificate din browser-ul dispozitivului dumneavoastră.

În anumite scopuri, interesele legitime pot prima asupra consimțământului. Puteți citi mai multe informații în acest sens în Politica privind Confidențialitatea Datelor și Cookie.